Regional Weather Roundup
Issued by NWS

Home | Current Version | Previous Version | Graphics & Text | Print | Product List | Glossary On
Versions: 1 2 3 4 5 6 7 8 9 10 11 12 13 14 15 16 17 18 19 20 21 22 23 24 25 26 27 28 29 30 31 32 33 34 35 36 37 38 39 40 41 42 43 44 45 46 47 48 49 50
000
ASUS43 KFSD 250710
RWRSD

WEATHER ROUNDUP FOR SOUTH DAKOTA
NATIONAL WEATHER SERVICE SIOUX FALLS SD
100 AM CST SAT NOV 25 2017

NOTE: "FAIR" INDICATES FEW OR NO CLOUDS BELOW 12,000 FEET WITH NO
SIGNIFICANT WEATHER AND/OR OBSTRUCTIONS TO VISIBILITY.


SDZ001>005-009-010-012>017-250800-
NORTHWEST AND NORTH CENTRAL SOUTH DAKOTA

CITY           SKY/WX    TMP DP  RH WIND       PRES   REMARKS
BUFFALO          N/A     31  24  75 W8        29.94R WCI  23
FAITH            N/A     34  28  79 W13       29.98S WCI  25
MOBRIDGE       CLEAR     31  26  82 N7        29.93R WCI  24
$$

SDZ012>016-024>037-041>051-057-063-072>074-250800-
SOUTHWEST AND SOUTH CENTRAL SOUTH DAKOTA

CITY           SKY/WX    TMP DP  RH WIND       PRES   REMARKS
RAPID CTY ARPT CLEAR     32  21  64 W8        30.03R WCI  25
PIERRE         CLEAR     35  31  85 W12       29.99R WCI  27
CUSTER         CLEAR     25  15  66 N5        30.04R WCI  19
ELLSWORTH AFB  CLEAR     31  21  65 W7        30.02R WCI  25
PHILIP         CLEAR     28  26  92 W6        30.02R WCI  22
PINE RIDGE     MOCLDY    20  18  92 CALM      30.06R
SPEARFISH      FAIR      32  21  64 W3        30.03R
WINNER         FAIR      38  31  76 W8        30.02R
$$

SDZ004>011-016>023-039-040-250800-
NORTHEAST SOUTH DAKOTA

CITY           SKY/WX    TMP DP  RH WIND       PRES   REMARKS
ABERDEEN       CLEAR     31  27  85 NW5       29.92R WCI  26
WATERTOWN      CLEAR     36  31  82 W10       29.90R
BROOKINGS      CLEAR     37  31  78 NW14      29.92R
SISSETON         N/A     39  30  70 NW8       29.88R
$$

SDZ017-020-022-023-036>040-048>070-250800-
SOUTHEAST SOUTH DAKOTA

CITY           SKY/WX    TMP DP  RH WIND       PRES   REMARKS
SIOUX FALLS    CLEAR     35  31  85 W9        29.95R WCI  28
HURON          CLEAR     31  28  89 W7        29.95R WCI  24
CHAMBERLAIN    CLEAR     36  33  90 W7        30.00S
MITCHELL       CLEAR     37  31  78 W9        29.98R
YANKTON        CLEAR     40  32  73 W10       29.99R
$$

ABBREVIATIONS USED IN REMARKS
   TC - TEMPERATURE IN CELSIUS
  WCI - WIND CHILL INDEX
   HX - HEAT INDEX
  VSB - VISIBILITY




USA.gov is the U.S. government's official web portal to all federal, state and local government web resources and services.